| time (UTC) | temp F | wind direction | speed knots | gust knots | rain 1hr in | rain 24hr in | rain mn in | humidity % | barometer mb |
| 20260502130310 | 60 | 171 | 7.8 | 12.2 | 0.00 | 0.63 | 0.63 | 97 | 1013.1 |
| 20260502123310 | 58 | 207 | 3.5 | 7.8 | 0.00 | 0.63 | 0.63 | 98 | 1013.5 |
| 20260502122310 | 58 | 186 | 3.5 | 7.8 | 0.00 | 0.63 | 0.63 | 98 | 1013.4 |
| 20260502121310 | 58 | 157 | 2.6 | 5.2 | 0.00 | 0.63 | 0.63 | 98 | 1013.5 |
| 20260502115310 | 58 | 96 | 4.3 | 6.1 | 0.00 | 0.63 | 0.63 | 98 | 1013.6 |
| 20260502114310 | 58 | 105 | 4.3 | 6.1 | 0.00 | 0.63 | 0.63 | 98 | 1013.7 |
| 20260502112310 | 57 | 140 | 3.5 | 9.6 | 0.00 | 0.63 | 0.63 | 98 | 1013.6 |
| 20260502111310 | 57 | 101 | 6.1 | 8.7 | 0.01 | 0.63 | 0.63 | 98 | 1013.4 |
| 20260502110310 | 57 | 128 | 4.3 | 6.1 | 0.02 | 0.63 | 0.63 | 99 | 1013.4 |
| 20260502105310 | 57 | 152 | 4.3 | 7.0 | 0.06 | 0.63 | 0.63 | 99 | 1013.5 |
| 20260502104310 | 57 | 96 | 4.3 | 6.1 | 0.09 | 0.63 | 0.63 | 99 | 1013.4 |
| 20260502103310 | 57 | 42 | 1.7 | 3.5 | 0.13 | 0.63 | 0.63 | 98 | 1013.4 |
| 20260502102310 | 56 | 234 | 0.9 | 7.0 | 0.18 | 0.63 | 0.63 | 98 | 1013.9 |
| 20260502101310 | 56 | 21 | 4.3 | 7.0 | 0.20 | 0.62 | 0.62 | 98 | 1013.6 |
| 20260502100310 | 56 | 269 | 0.9 | 7.0 | 0.28 | 0.61 | 0.61 | 98 | 1015.3 |
| 20260502091311 | 56 | 220 | 5.2 | 10.4 | 0.22 | 0.43 | 0.43 | 98 | 1016.5 |
| 20260502071310 | 56 | 98 | 4.3 | 9.6 | 0.06 | 0.12 | 0.12 | 97 | 1015.6 |
| 20260502070310 | 56 | 91 | 7.8 | 10.4 | 0.05 | 0.10 | 0.10 | 97 | 1015.8 |
| 20260502065310 | 56 | 89 | 3.5 | 7.0 | 0.06 | 0.10 | 0.10 | 97 | 1016.2 |
| 20260502064310 | 55 | 89 | 2.6 | 6.1 | 0.06 | 0.10 | 0.10 | 97 | 1015.8 |
| 20260502063310 | 55 | 103 | 5.2 | 7.8 | 0.06 | 0.09 | 0.09 | 97 | 1015.9 |
| 20260502062310 | 55 | 103 | 5.2 | 10.4 | 0.06 | 0.07 | 0.07 | 96 | 1016.1 |
| 20260502061309 | 55 | 84 | 6.1 | 8.7 | 0.06 | 0.06 | 0.06 | 96 | 1016.4 |
| 20260502060309 | 54 | 112 | 5.2 | 8.7 | 0.06 | 0.06 | 0.06 | 96 | 1016.8 |
| 20260502055309 | 54 | 77 | 4.3 | 7.0 | 0.05 | 0.05 | 0.05 | 95 | 1016.9 |
| 20260502054309 | 54 | 121 | 3.5 | 6.1 | 0.04 | 0.04 | 0.04 | 95 | 1017.1 |
| 20260502053309 | 54 | 129 | 2.6 | 3.5 | 0.03 | 0.03 | 0.03 | 95 | 1017.2 |
| 20260502052309 | 54 | 108 | 1.7 | 2.6 | 0.02 | 0.02 | 0.02 | 95 | 1017.3 |
| 20260502051310 | 54 | 218 | 1.7 | 5.2 | 0.00 | 0.00 | 0.00 | 94 | 1017.6 |
| 20260502050309 | 54 | 211 | 3.5 | 5.2 | 0.00 | 0.00 | 0.00 | 94 | 1017.7 |
| 20260502045309 | 54 | 100 | 1.7 | 3.5 | 0.00 | 0.00 | 0.00 | 94 | 1017.3 |
| 20260502043312 | 54 | 42 | 2.6 | 4.3 | 0.00 | 0.00 | 0.00 | 94 | 1017.2 |
| 20260502041311 | 54 | 82 | 2.6 | 3.5 | 0.00 | 0.00 | 0.00 | 94 | 1017.4 |
| 20260502040311 | 54 | 58 | 2.6 | 6.1 | 0.00 | 0.00 | 0.00 | 94 | 1017.4 |
| 20260502035311 | 54 | 86 | 2.6 | 4.3 | 0.00 | 0.00 | 0.00 | 93 | 1017.5 |
| 20260502034311 | 54 | 54 | 2.6 | 4.3 | 0.00 | 0.00 | 0.00 | 93 | 1017.7 |
| 20260502033311 | 54 | 89 | 2.6 | 3.5 | 0.00 | 0.00 | 0.00 | 93 | 1017.9 |
| 20260502032311 | 54 | 46 | 0.9 | 2.6 | 0.00 | 0.00 | 0.00 | 93 | 1018.0 |
| 20260502031311 | 54 | 105 | 0.9 | 1.7 | 0.00 | 0.00 | 0.00 | 92 | 1018.0 |
| 20260502030311 | 54 | 89 | 1.7 | 3.5 | 0.00 | 0.00 | 0.00 | 92 | 1018.1 |
| 20260502025311 | 54 | 103 | 1.7 | 3.5 | 0.00 | 0.00 | 0.00 | 92 | 1018.2 |
| 20260502024312 | 54 | 28 | 1.7 | 3.5 | 0.00 | 0.00 | 0.00 | 91 | 1018.2 |
| 20260502023312 | 54 | 70 | 1.7 | 3.5 | 0.00 | 0.00 | 0.00 | 91 | 1018.3 |
| 20260502022311 | 54 | 77 | 2.6 | 4.3 | 0.00 | 0.00 | 0.00 | 91 | 1018.5 |
| 20260502020311 | 54 | 83 | 2.6 | 4.3 | 0.00 | 0.00 | 0.00 | 90 | 1018.8 |
| 20260502015311 | 54 | 46 | 1.7 | 3.5 | 0.00 | 0.00 | 0.00 | 90 | 1018.9 |
| 20260502013311 | 54 | 56 | 0.9 | 0.9 | 0.00 | 0.00 | 0.00 | 90 | 1019.3 |
| 20260502012311 | 54 | 314 | 0.9 | 1.7 | 0.00 | 0.00 | 0.00 | 90 | 1019.5 |
| 20260502011311 | 54 | 178 | 0.0 | 2.6 | 0.00 | 0.00 | 0.00 | 90 | 1019.7 |
| 20260502010311 | 54 | 296 | 0.9 | 0.9 | 0.00 | 0.00 | 0.00 | 90 | 1019.8 |
| 20260502005311 | 54 | 135 | 0.0 | 0.0 | 0.00 | 0.00 | 0.00 | 90 | 1019.9 |
| 20260502004312 | 54 | 46 | 0.0 | 0.9 | 0.00 | 0.00 | 0.00 | 90 | 1020.1 |
| 20260502003311 | 54 | 28 | 0.0 | 0.9 | 0.00 | 0.00 | 0.00 | 90 | 1020.2 |
| 20260502002311 | 54 | 152 | 0.0 | 0.9 | 0.00 | 0.00 | 0.00 | 90 | 1020.3 |
| 20260502001311 | 54 | 142 | 0.9 | 1.7 | 0.00 | 0.00 | 0.00 | 90 | 1020.4 |
| 20260502000311 | 54 | 206 | 0.0 | 0.9 | 0.00 | 0.00 | 0.00 | 89 | 1020.5 |
| 20260501235311 | 54 | 269 | 0.0 | 0.9 | 0.00 | 0.00 | 0.00 | 90 | 1020.6 |
| 20260501234311 | 54 | 124 | 0.9 | 1.7 | 0.00 | 0.00 | 0.00 | 90 | 1020.5 |
| 20260501233311 | 54 | 122 | 0.9 | 1.7 | 0.00 | 0.00 | 0.00 | 90 | 1020.4 |
| 20260501225312 | 54 | 127 | 0.9 | 1.7 | 0.00 | 0.00 | 0.00 | 89 | 1020.8 |
| 20260501224311 | 55 | 108 | 0.9 | 1.7 | 0.00 | 0.00 | 0.00 | 89 | 1020.9 |
| 20260501223311 | 55 | 124 | 0.9 | 1.7 | 0.00 | 0.00 | 0.00 | 89 | 1021.0 |
| 20260501222311 | 55 | 117 | 0.0 | 0.9 | 0.00 | 0.00 | 0.00 | 89 | 1020.9 |
| 20260501221311 | 55 | 142 | 0.0 | 1.7 | 0.00 | 0.00 | 0.00 | 89 | 1021.1 |
| 20260501215311 | 55 | 89 | 0.9 | 1.7 | 0.00 | 0.00 | 0.00 | 89 | 1021.1 |
| 20260501214311 | 55 | 107 | 0.9 | 1.7 | 0.00 | 0.00 | 0.00 | 89 | 1021.1 |
| 20260501213311 | 55 | 145 | 0.0 | 0.9 | 0.00 | 0.00 | 0.00 | 89 | 1021.3 |
| 20260501212311 | 55 | 178 | 0.9 | 1.7 | 0.00 | 0.00 | 0.00 | 88 | 1021.4 |
| 20260501211311 | 55 | 165 | 0.9 | 0.9 | 0.00 | 0.00 | 0.00 | 88 | 1021.3 |
| 20260501210311 | 55 | 152 | 0.0 | 0.9 | 0.00 | 0.00 | 0.00 | 88 | 1021.3 |
| 20260501205310 | 55 | 178 | 0.0 | 0.9 | 0.00 | 0.00 | 0.00 | 88 | 1021.2 |
| 20260501204310 | 59 | 178 | 1.7 | 4.3 | 0.00 | 0.00 | 0.00 | 84 | 1020.6 |
| 20260501203310 | 55 | 89 | 0.0 | 0.9 | 0.00 | 0.00 | 0.00 | 87 | 1021.3 |
| 20260501201311 | 56 | 135 | 0.0 | 0.0 | 0.00 | 0.00 | 0.00 | 87 | 1021.1 |
| 20260501200311 | 56 | 117 | 0.0 | 1.7 | 0.00 | 0.00 | 0.00 | 87 | 1021.0 |
| 20260501195312 | 56 | 46 | 0.9 | 1.7 | 0.00 | 0.00 | 0.00 | 87 | 1021.0 |
| 20260501194310 | 56 | 72 | 0.9 | 1.7 | 0.00 | 0.00 | 0.00 | 87 | 1021.0 |
| 20260501193310 | 56 | 28 | 0.9 | 1.7 | 0.00 | 0.00 | 0.00 | 87 | 1020.9 |
| 20260501192310 | 56 | 76 | 0.9 | 3.5 | 0.00 | 0.00 | 0.00 | 87 | 1020.9 |
| 20260501190310 | 56 | 269 | 0.9 | 2.6 | 0.00 | 0.00 | 0.00 | 86 | 1020.8 |
| 20260501185310 | 56 | 72 | 0.9 | 2.6 | 0.00 | 0.00 | 0.00 | 86 | 1020.7 |
| 20260501184310 | 56 | 51 | 1.7 | 2.6 | 0.00 | 0.00 | 0.00 | 86 | 1020.8 |
| 20260501183310 | 56 | 76 | 1.7 | 3.5 | 0.00 | 0.00 | 0.00 | 86 | 1020.7 |
| 20260501182310 | 57 | 20 | 0.9 | 1.7 | 0.00 | 0.00 | 0.00 | 85 | 1020.7 |
| 20260501181310 | 57 | 49 | 0.9 | 4.3 | 0.00 | 0.00 | 0.00 | 85 | 1020.6 |
| 20260501180310 | 57 | 79 | 1.7 | 3.5 | 0.00 | 0.00 | 0.00 | 84 | 1020.6 |
| 20260501175310 | 58 | 33 | 1.7 | 4.3 | 0.00 | 0.00 | 0.00 | 84 | 1020.7 |
| 20260501174310 | 58 | 89 | 1.7 | 4.3 | 0.00 | 0.00 | 0.00 | 83 | 1020.4 |
| 20260501173310 | 58 | 314 | 0.9 | 5.2 | 0.00 | 0.00 | 0.00 | 83 | 1020.7 |
| 20260501172310 | 59 | 41 | 2.6 | 5.2 | 0.00 | 0.00 | 0.00 | 84 | 1020.6 |
| 20260501171310 | 59 | 35 | 1.7 | 4.3 | 0.00 | 0.00 | 0.00 | 84 | 1020.7 |
| 20260501170310 | 59 | 349 | 2.6 | 5.2 | 0.00 | 0.00 | 0.00 | 84 | 1020.6 |
| 20260501165310 | 59 | 32 | 1.7 | 4.3 | 0.00 | 0.00 | 0.00 | 84 | 1020.6 |
| 20260501162310 | 58 | 79 | 3.5 | 7.0 | 0.00 | 0.00 | 0.00 | 85 | 1020.6 |
| 20260501161310 | 59 | 49 | 4.3 | 7.0 | 0.00 | 0.00 | 0.00 | 84 | 1020.7 |
| 20260501160310 | 59 | 89 | 1.7 | 7.0 | 0.00 | 0.00 | 0.00 | 84 | 1020.5 |
| 20260501155310 | 59 | 21 | 2.6 | 7.0 | 0.00 | 0.00 | 0.00 | 84 | 1020.6 |
| 20260501154310 | 59 | 96 | 4.3 | 7.0 | 0.00 | 0.00 | 0.00 | 84 | 1020.7 |
| 20260501151310 | 60 | 58 | 3.5 | 9.6 | 0.00 | 0.00 | 0.00 | 84 | 1020.9 |
| 20260501150310 | 60 | 27 | 4.3 | 8.7 | 0.00 | 0.00 | 0.00 | 84 | 1020.7 |